ATLAS 5 CENTAUR DEB, 43976

Orbit data source: Space-Track

ATLAS 5 CENTAUR DEB, 43976 is space debris in HEO originally from a launch on Wed, 17 Sep 2014 UTC launched from the Air Force Eastern Test Range (AFETR). Debris objects in space refer to the collection of defunct objects orbiting the Earth. Examples of debris include non-operational satellites, rocket bodies, and fragments generated from explosions, collisions, or faulty payload assembly.

Loading next visibility...
Identifier
43976, 2014-055AF
Orbit
HEO
Last TLE update
2 days ago
Origin
Flag of USUnited Launch Alliance/Lockheed Martin (US)
Manufacturer
Unknown
Mission
Spacecraft
Bus & Motor
Unknown
Mass
Unknown
Launch date (UTC)
2014-09-17 (11 years ago)
Launch vehicle
Unknown
Launch site
Air Force Eastern Test Range (AFETR)
Object type
Payload
Rocket body
Debris
Shape & HBR
Unknown
Radar Cross Section
Small (<0.1 m²)

Expand to show TLE details & history

TLE from 2 days ago
0 ATLAS 5 CENTAUR DEB
1 43976U 14055AF  25185.27745404 -.00000040  00000-0  00000-0 0  9993
2 43976  19.4579 182.9304 4847967  93.4453 320.9990  1.83493118 45814
Epoch: 2025-07-04T06:39Z
TLE epoch observation values (Epoch: 2025-07-04T06:39:32.029Z)
Latitude
Longitude
160.50387°
Altitude
15,805.619 km
Speed
4.668 km/s
True Right ascension
12h 11m 40s
True Declination
0° 00' 00"
Sunlit
Object was in daylight at epoch
Visualization orbit readout
Latitude
16.27681°
Longitude
-144.07072°
Altitude
9,115.089 km
Speed
6.109 km/s
Apparent Right ascension
17h 09m 59s
Apparent Declination
1° 01' 44"
Sunlit
Object is in daylight
Visualization observer readout
Local Sidereal Time
10:49:51
Azimuth
85.977° E
Elevation
-3.196°
Doppler factor
1
Orbital elements
Apogee altitude
35,470.943 km
Perigee altitude
8,142.898 km
Semi-major axis
28,185.057 km
Eccentricity
0.4848
Inclination
19.4579°
RAAN
182.9304°
Arg. of periapsis
93.4453°
True anomaly
Unknown
Mean anomaly
320.999°
Eccentric anomaly
Unknown
Mean motion
0.45869 °/min
Orbital period
784.85 mins
BSTAR
0
Loading maneuver chart data...
Loading SW <> Apogee altitude chart data...
Loading historical data...
Loading historical data...
Loading historical data...
Loading historical data...
Loading historical data...
Loading historical data...
Loading historical data...

ATLAS 5 CENTAUR DEB Visibility forecast

Observer location: undefined°, undefined°

Span
Click to sort rows by Start time (UTC) header in descending order
Start Az.
Max El. time (UTC)
Max El. Az.
Max El.
End time (UTC)
End Az.
605 mins2025-07-06 12:48:35.564Z260.337° W2025-07-06 13:47:35.564Z205.291° SW26.896°2025-07-06 22:53:35.564Z194.754° SSW
|